Mojave, CA

8:39 PM PST on December 08, 2019 (GMT -0800)
Mojave

Weather History for KMHV - October, 2019

Change the Weather History Date:

Friday, October 25, 2019

  Actual Average Record
Temperature  
Mean Temperature 63 °F -  
Max Temperature 78 °F 74 °F 87 °F (1969)
Min Temperature 48 °F 46 °F 33 °F (1975)
Degree Days  
Heating Degree Days 2    
Growing Degree Days 13 (Base 50)    
Moisture  
Dew Point 8 °F    
Average Humidity 12    
Maximum Humidity 26    
Minimum Humidity 7    
Precipitation  
Precipitation 0.00 in - - ()
Sea Level Pressure  
Sea Level Pressure 30.19 in    
Wind  
Wind Speed 8 mph ()    
Max Wind Speed 12 mph    
Max Gust Speed 17 mph    
Visibility 9.7 miles    
Events      
Averages and records for this station are not official NWS values.
T = Trace of Precipitation, MM = Missing Value Source: Averaged Metar Reports

Daily Weather History Graph

Daily Weather History Graph

Search for Another Location

Airport or City:

Astronomy

Oct. 25, 2019 Rise Set
Actual Time 7:07 AM PDT 6:05 PM PDT
Civil Twilight 6:41 AM PDT 6:31 PM PDT
Nautical Twilight 6:11 AM PDT 7:01 PM PDT
Astronomical Twilight 5:42 AM PDT 7:30 PM PDT
Moon 4:05 AM PDT (10/25) 5:01 PM PDT (10/25)
Length of Visible Light 11h 50m
Length of Day
10h 58m
Waning Crescent, 8% of the Moon is Illuminated
Oct 25
Waning Crescent
Oct 27
New
Nov 4
First Quarter
Nov 12
Full
Nov 19
Last Quarter

Hourly Weather History & Observations

Time (PDT) Temp. Dew Point Humidity Pressure Visibility Wind Dir Wind Speed Gust Speed Precip Events Conditions
12:00 AM 53.6 °F -2.2 °F 10% 30.27 in 10.0 mi NNW 10.4 mph - N/A   Clear
12:20 AM 55.4 °F -2.2 °F 9% 30.27 in 10.0 mi North 9.2 mph - N/A   Clear
12:40 AM 57.2 °F -0.4 °F 10% 30.27 in 10.0 mi NNW 10.4 mph - N/A   Clear
1:00 AM 57.2 °F -0.4 °F 10% 30.27 in 10.0 mi NNW 9.2 mph - N/A   Partly Cloudy
1:20 AM 55.4 °F -0.4 °F 10% 30.27 in 10.0 mi North 10.4 mph - N/A   Partly Cloudy
1:40 AM 55.4 °F -0.4 °F 10% 30.27 in 10.0 mi North 9.2 mph - N/A   Partly Cloudy
2:00 AM 53.6 °F -0.4 °F 11% 30.27 in 10.0 mi NNW 9.2 mph - N/A   Clear
2:20 AM 51.8 °F -0.4 °F 12% 30.27 in 10.0 mi NNW 9.2 mph - N/A   Clear
2:40 AM 51.8 °F -0.4 °F 12% 30.26 in 9.0 mi NNW 9.2 mph - N/A   Clear
3:00 AM 51.8 °F -0.4 °F 12% 30.26 in 9.0 mi NNW 9.2 mph - N/A   Partly Cloudy
3:20 AM 50.0 °F -0.4 °F 13% 30.26 in 10.0 mi NNW 6.9 mph - N/A   Partly Cloudy
3:40 AM 50.0 °F -0.4 °F 13% 30.25 in 10.0 mi NNW 5.8 mph - N/A   Partly Cloudy
4:00 AM 50.0 °F -0.4 °F 13% 30.25 in 10.0 mi North 8.1 mph - N/A   Partly Cloudy
4:20 AM 50.0 °F -0.4 °F 13% 30.25 in 10.0 mi NNW 6.9 mph - N/A   Clear
4:40 AM 50.0 °F -0.4 °F 13% 30.25 in 10.0 mi NNW 11.5 mph - N/A   Clear
5:00 AM 50.0 °F -0.4 °F 13% 30.26 in 10.0 mi NW 9.2 mph - N/A   Partly Cloudy
5:20 AM 48.2 °F -0.4 °F 13% 30.26 in 10.0 mi NW 6.9 mph - N/A   Partly Cloudy
5:40 AM 50.0 °F -0.4 °F 13% 30.26 in 10.0 mi NW 10.4 mph - N/A   Partly Cloudy
6:00 AM 48.2 °F -0.4 °F 13% 30.26 in 9.0 mi NNW 6.9 mph - N/A   Partly Cloudy
6:20 AM 48.2 °F -0.4 °F 13% 30.26 in 10.0 mi NNW 8.1 mph - N/A   Clear
6:40 AM 48.2 °F -0.4 °F 13% 30.26 in 6.0 mi North 6.9 mph - N/A   Haze
7:00 AM 48.2 °F -0.4 °F 13% 30.26 in 10.0 mi North 6.9 mph - N/A   Clear
7:20 AM 50.0 °F -0.4 °F 13% 30.26 in 6.0 mi North 6.9 mph - N/A   Haze
7:40 AM 51.8 °F 1.4 °F 13% 30.27 in 6.0 mi NNE 4.6 mph - N/A   Haze
8:00 AM 55.4 °F 1.4 °F 11% 30.27 in 5.0 mi North 6.9 mph - N/A   Haze
8:20 AM 60.8 °F 3.2 °F 10% 30.27 in 7.0 mi North 6.9 mph - N/A   Clear
8:40 AM 66.2 °F 3.2 °F 8% 30.28 in 10.0 mi NNE 5.8 mph - N/A   Clear
9:00 AM 68.0 °F 3.2 °F 8% 30.28 in 10.0 mi NNE 5.8 mph - N/A   Clear
9:20 AM 69.8 °F 3.2 °F 7% 30.27 in 10.0 mi NE 8.1 mph - N/A   Clear
9:40 AM 69.8 °F 3.2 °F 7% 30.27 in 10.0 mi NE 8.1 mph - N/A   Clear
10:00 AM 69.8 °F 5.0 °F 8% 30.27 in 10.0 mi NE 6.9 mph - N/A   Clear
10:20 AM 71.6 °F 3.2 °F 7% 30.27 in 10.0 mi ENE 8.1 mph 13.8 mph N/A   Clear
10:40 AM 71.6 °F 3.2 °F 7% 30.26 in 10.0 mi North - - N/A   Clear
11:00 AM 71.6 °F 5.0 °F 7% 30.26 in 10.0 mi ENE 10.4 mph 17.3 mph N/A   Clear
11:20 AM 73.4 °F 5.0 °F 7% 30.25 in 10.0 mi East 10.4 mph - N/A   Clear
11:40 AM 73.4 °F 5.0 °F 7% 30.25 in 10.0 mi NE 10.4 mph - N/A   Clear
12:00 PM 73.4 °F 5.0 °F 7% 30.23 in 10.0 mi East 11.5 mph - N/A   Clear
12:20 PM 75.2 °F 5.0 °F 7% 30.22 in 10.0 mi NE 6.9 mph - N/A   Clear
12:40 PM 75.2 °F 5.0 °F 7% 30.21 in 10.0 mi NE 8.1 mph - N/A   Clear
1:00 PM 75.2 °F 6.8 °F 7% 30.20 in 10.0 mi NE 10.4 mph - N/A   Clear
1:20 PM 77.0 °F 8.6 °F 7% 30.19 in 10.0 mi NE 8.1 mph 13.8 mph N/A   Clear
1:40 PM 77.0 °F 8.6 °F 7% 30.18 in 10.0 mi NE 6.9 mph - N/A   Clear
2:00 PM 77.0 °F 10.4 °F 8% 30.17 in 10.0 mi ENE 9.2 mph - N/A   Clear
2:20 PM 77.0 °F 8.6 °F 7% 30.16 in 10.0 mi ENE 8.1 mph - N/A   Clear
2:40 PM 78.8 °F 10.4 °F 7% 30.15 in 10.0 mi ENE 9.2 mph - N/A   Clear
3:00 PM 78.8 °F 12.2 °F 8% 30.14 in 10.0 mi NNE 8.1 mph - N/A   Clear
3:40 PM 78.8 °F 12.2 °F 8% 30.12 in 10.0 mi East 6.9 mph - N/A   Clear
4:00 PM 78.8 °F 12.2 °F 8% 30.12 in 10.0 mi SE 4.6 mph - N/A   Clear
4:20 PM 78.8 °F 12.2 °F 8% 30.11 in 10.0 mi Calm Calm - N/A   Clear
4:40 PM 78.8 °F 12.2 °F 8% 30.11 in 10.0 mi SE 4.6 mph - N/A   Clear
5:00 PM 78.8 °F 12.2 °F 8% 30.10 in 10.0 mi SE 4.6 mph - N/A   Clear
5:20 PM 78.8 °F 12.2 °F 8% 30.10 in 10.0 mi SSE 4.6 mph - N/A   Clear
5:40 PM 77.0 °F 12.2 °F 9% 30.09 in 10.0 mi South 4.6 mph - N/A   Clear
6:20 PM 75.2 °F 12.2 °F 9% 30.09 in 10.0 mi SSW 3.5 mph - N/A   Clear
6:40 PM 66.2 °F 10.4 °F 11% 30.09 in 10.0 mi WNW 5.8 mph - N/A   Clear
7:00 PM 62.6 °F 10.4 °F 13% 30.09 in 10.0 mi West 5.8 mph - N/A   Clear
7:20 PM 64.4 °F 12.2 °F 13% 30.09 in 10.0 mi West 6.9 mph - N/A   Clear
7:40 PM 66.2 °F 19.4 °F 17% 30.09 in 10.0 mi WSW 8.1 mph - N/A   Clear
8:00 PM 68.0 °F 24.8 °F 20% 30.09 in 10.0 mi WSW 8.1 mph - N/A   Clear
8:20 PM 64.4 °F 24.8 °F 22% 30.09 in 10.0 mi West 4.6 mph - N/A   Clear
8:40 PM 66.2 °F 28.4 °F 24% 30.09 in 10.0 mi West 6.9 mph - N/A   Clear
9:00 PM 64.4 °F 26.6 °F 24% 30.08 in 10.0 mi WNW 5.8 mph - N/A   Clear
9:20 PM 62.6 °F 21.2 °F 20% 30.08 in 10.0 mi WNW 8.1 mph - N/A   Clear
9:40 PM 64.4 °F 24.8 °F 22% 30.09 in 10.0 mi WNW 6.9 mph - N/A   Clear
10:00 PM 62.6 °F 24.8 °F 24% 30.08 in 10.0 mi NW 9.2 mph - N/A   Clear
10:20 PM 62.6 °F 26.6 °F 26% 30.09 in 10.0 mi NNW 8.1 mph - N/A   Clear
10:40 PM 60.8 °F 21.2 °F 22% 30.09 in 10.0 mi NNW 6.9 mph - N/A   Clear
11:00 PM 59.0 °F 21.2 °F 23% 30.09 in 10.0 mi NNW 6.9 mph - N/A   Clear
11:20 PM 59.0 °F 21.2 °F 23% 30.08 in 10.0 mi North 6.9 mph - N/A   Clear
11:40 PM 55.4 °F 21.2 °F 26% 30.07 in 10.0 mi NW 4.6 mph - N/A   Clear